GFSGL_250_rhum_231.txt.gz
RH
98 100 100 100 100 100 100 100 100 98 100 90 86 85 99 100 100 100 100 100 100 97 96 84 79 75 70 56 44 43 41 60 65 85 83 65 75 75 71 54 43 41 40
100 100 100 100 100 100 100 100 100 100 100 97 100 100 100 100 100 100 100 97 96 98 100 70 69 65 61 50 48 45 55 62 80 73 86 85 76 70 51 37 34 32 26
100 100 100 100 100 100 100 100 100 100 100 100 100 100 100 100 100 100 99 94 89 98 92 98 81 68 55 49 56 59 65 76 77 81 81 76 73 66 39 33 29 26 24
100 100 100 100 100 100 100 100 100 100 100 100 100 100 100 100 100 100 90 87 82 93 100 79 86 69 56 62 70 77 76 77 69 73 73 66 68 54 37 33 29 27 24
92 100 100 100 100 100 100 100 100 100 100 100 100 100 100 100 100 85 87 75 78 80 86 80 69 58 64 70 82 76 69 74 72 72 65 62 52 47 37 32 31 29 28
80 97 100 100 100 100 100 100 100 100 100 100 100 100 100 100 92 100 97 88 74 81 90 85 66 74 71 83 70 65 80 68 49 35 30 42 40 39 35 33 33 31 26
92 87 94 100 100 100 89 91 79 96 100 97 98 100 99 100 100 96 88 89 87 84 86 75 70 71 90 90 76 87 51 48 36 30 27 26 25 29 28 27 28 26 26
100 100 100 100 100 94 90 82 86 91 88 96 100 100 100 94 94 99 94 100 82 90 79 71 70 89 85 81 86 61 54 32 29 28 26 25 28 29 27 27 25 26 37
100 100 100 100 100 100 99 78 99 88 90 73 88 82 90 90 89 85 98 94 96 91 76 76 100 91 82 84 72 56 36 32 29 27 28 28 32 33 30 29 33 35 41
100 100 100 100 100 100 100 100 100 99 88 100 99 93 82 94 72 92 94 83 97 92 100 95 95 92 93 74 60 37 34 41 35 29 30 33 32 34 32 35 45 47 79
100 100 100 100 100 100 100 100 100 100 100 100 100 100 91 91 100 99 99 98 89 98 95 98 100 99 80 50 46 33 34 40 39 41 39 35 35 39 48 64 69 73 66
92 100 100 100 100 100 100 100 100 100 100 100 100 100 100 100 100 100 100 100 100 99 91 91 95 91 55 43 32 34 44 43 38 42 44 44 45 57 70 77 71 61 57
30 32 38 62 78 97 100 100 100 100 100 100 100 100 100 100 100 100 100 100 100 95 90 88 84 49 40 38 46 46 47 45 47 47 63 65 62 62 73 68 58 62 65
27 28 29 30 30 31 29 28 66 100 100 100 100 100 100 100 100 100 100 100 97 85 78 90 57 43 47 53 57 56 64 64 62 75 75 61 59 65 68 62 68 75 72
24 24 23 26 29 29 32 30 43 95 100 100 100 100 100 100 100 100 91 72 85 87 82 52 54 61 64 64 64 73 74 69 81 85 76 72 70 69 67 69 74 71 58
23 26 23 23 30 30 32 33 34 46 68 100 79 100 100 100 99 91 52 84 72 53 54 55 60 88 70 74 85 94 84 77 87 81 87 84 74 76 76 72 68 62 54
21 28 30 27 29 30 34 37 34 36 40 55 83 92 90 77 65 57 50 46 49 52 61 63 73 68 82 90 98 97 100 90 80 87 79 79 77 72 72 61 55 51 52
20 25 30 30 30 32 32 32 36 41 41 49 60 54 49 49 51 55 53 53 60 63 61 71 74 76 81 97 100 100 94 81 80 71 78 78 70 63 56 58 58 52 36
16 20 25 32 32 35 38 38 40 48 46 45 43 50 54 51 46 53 56 58 64 64 67 70 68 78 89 96 91 96 94 87 76 70 72 69 62 55 57 56 46 32 24
14 21 25 27 30 36 41 42 43 44 46 50 50 46 46 48 51 57 69 64 63 63 70 78 89 96 100 100 86 82 82 83 84 82 75 54 56 58 56 45 36 26 22
9 14 21 29 35 40 43 45 44 45 45 44 44 47 54 64 63 66 64 62 67 81 92 97 92 99 100 98 88 95 100 93 70 52 55 56 55 43 38 30 23 20 21
10 11 15 23 32 33 34 36 38 40 42 46 52 55 59 64 68 66 73 87 94 93 94 100 96 91 94 84 80 74 75 63 58 57 55 53 44 32 24 22 22 18 8
15 16 16 16 28 59 37 36 50 58 58 59 59 66 74 79 88 94 96 99 100 99 100 97 96 100 78 67 68 71 64 50 51 53 50 38 26 23 24 20 10 8 7
33 20 18 20 31 50 51 41 51 66 68 63 69 79 83 92 100 100 100 95 100 100 100 100 95 63 69 72 68 46 44 49 48 39 30 25 25 22 10 8 8 7 7
53 47 35 36 55 52 57 73 83 83 76 82 85 90 95 100 100 99 100 100 99 89 78 82 82 75 65 57 46 50 50 45 30 25 28 24 12 9 9 9 8 8 8
69 69 69 69 74 83 83 90 96 88 94 94 99 100 100 100 100 100 100 100 92 94 96 83 66 56 49 52 55 47 32 27 30 29 16 10 10 10 9 8 9 10 10

GFSGL_250_rhum_237.txt.gz
RH
90 94 97 100 100 100 100 100 100 100 100 100 100 100 100 98 99 90 77 100 100 100 100 100 100 100 100 100 100 100 100 100 100 100 100 100 94 79 59 58 55 60 60
100 100 100 100 100 100 100 100 100 100 100 100 100 100 100 100 90 77 85 60 90 100 100 100 100 100 100 100 100 100 100 100 100 100 100 99 81 70 61 55 66 73 77
100 100 100 100 100 100 100 100 100 100 100 100 100 100 94 94 82 87 68 67 86 100 98 100 100 100 100 100 100 100 100 100 100 100 98 87 69 76 68 65 76 81 75
100 100 100 100 100 100 100 100 100 100 100 100 100 100 100 100 96 89 69 68 76 77 76 100 100 100 100 100 100 100 100 100 100 95 100 93 83 94 68 85 92 75 66
100 100 100 100 99 98 100 100 100 100 100 100 100 100 100 100 100 100 98 95 100 99 100 100 100 100 100 100 100 100 100 100 84 100 76 96 100 85 77 90 83 82 70
100 100 100 100 100 94 88 84 90 100 100 100 100 100 98 95 89 69 65 72 72 85 81 93 100 100 100 100 100 100 84 94 97 88 91 100 100 94 94 75 82 90 83
100 100 100 100 100 100 100 97 92 100 100 100 100 100 94 96 79 65 65 70 79 80 77 96 100 100 100 100 100 100 100 92 99 100 100 98 100 85 99 82 94 83 88
100 100 100 100 100 100 100 99 98 98 100 100 98 100 100 100 77 68 68 80 90 98 100 100 100 100 100 100 100 100 100 100 100 100 100 100 100 100 87 90 89 83 81
100 100 100 100 100 100 100 100 100 100 100 100 100 100 100 92 75 65 82 85 100 100 100 100 100 100 100 100 100 100 100 100 96 83 100 100 96 91 94 97 85 89 71
100 100 100 100 100 100 100 100 100 100 100 100 100 100 100 86 69 66 71 98 100 100 100 100 97 100 100 99 100 100 100 100 100 100 100 100 100 92 100 90 93 96 60
80 98 100 100 100 100 100 100 98 94 86 100 100 98 91 93 91 95 80 95 98 100 100 94 100 100 99 100 100 100 100 100 100 100 100 97 87 99 94 84 93 65 55
41 66 84 94 100 100 99 85 85 90 91 92 100 100 100 100 100 100 96 100 100 100 100 100 100 100 100 100 100 100 100 100 93 67 89 99 99 97 97 96 71 56 50
43 51 76 92 99 100 100 100 100 100 100 100 100 100 100 100 100 100 100 100 100 100 100 100 100 100 100 100 100 100 100 62 44 91 94 100 96 98 99 70 50 52 50
14 26 84 81 84 91 100 100 100 100 100 100 99 97 98 100 100 93 92 95 89 87 100 100 100 100 100 100 96 72 43 42 79 93 100 97 89 80 73 54 51 48 46
13 16 15 24 67 88 85 94 95 68 45 38 38 52 65 78 80 58 43 58 83 72 97 100 100 100 98 84 37 42 53 56 75 91 94 86 70 62 54 55 53 46 45
10 10 12 14 15 23 28 25 26 28 26 26 25 27 31 31 30 42 75 98 100 100 99 100 100 99 95 63 70 65 52 54 88 88 70 70 61 56 52 50 48 50 58
8 10 12 12 11 12 19 26 23 25 25 25 27 28 27 29 31 35 45 53 74 100 77 100 100 100 100 89 75 72 69 72 64 72 86 71 61 54 50 51 49 61 66
4 4 7 10 12 11 12 18 22 19 22 23 28 29 26 26 31 33 37 36 40 40 91 100 100 100 91 71 78 92 100 99 72 75 70 63 60 53 48 53 61 56 56
5 4 4 5 8 10 11 14 16 16 17 18 23 27 22 24 28 33 37 35 37 40 50 98 100 97 98 98 100 100 100 68 62 62 72 58 54 53 60 61 55 48 43
4 4 4 5 5 6 9 13 15 16 16 18 20 23 25 24 30 32 35 34 36 38 38 44 63 76 78 93 85 73 62 65 62 64 65 58 71 68 65 54 48 47 45
4 4 4 4 4 4 5 6 12 17 18 19 22 24 26 28 30 33 37 36 37 41 44 42 44 46 50 55 56 57 62 59 67 72 70 72 64 61 56 43 41 47 44
4 4 4 4 4 5 5 6 7 13 18 22 26 29 31 33 33 34 41 41 42 47 45 45 53 54 52 60 64 60 65 82 81 76 85 68 57 50 46 45 46 38 26
5 4 4 4 5 6 7 7 7 11 18 24 28 32 35 39 46 73 100 60 60 60 61 57 60 62 66 65 75 86 87 81 90 88 82 60 46 48 46 46 30 19 20
6 5 6 6 6 8 8 9 10 14 22 29 32 37 53 68 84 67 73 82 68 58 69 76 79 78 84 91 88 99 90 96 90 81 68 55 52 50 43 28 22 26 24
7 7 8 8 9 10 11 12 15 22 29 31 36 44 77 82 100 94 78 87 95 86 86 90 92 89 92 99 100 100 100 98 81 65 63 56 51 44 27 24 31 29 17
10 9 10 11 11 15 17 20 25 45 38 53 54 51 62 67 82 83 89 94 94 90 89 93 100 100 100 99 98 95 93 82 70 61 56 52 39 27 28 36 27 15 15

GFSGL_250_rhum_243.txt.gz
RH
100 100 100 100 100 100 100 100 100 98 97 99 97 93 96 100 100 97 100 97 72 72 100 100 82 84 78 78 90 98 100 100 100 100 100 100 100 100 100 100 95 96 93
92 100 100 100 100 100 100 100 100 100 100 100 100 100 100 100 100 95 100 100 98 99 100 98 94 100 85 72 91 100 100 100 100 100 100 100 100 100 100 92 73 66 77
84 84 99 100 99 100 100 100 100 100 100 100 100 100 100 100 100 100 100 100 100 100 100 100 100 100 77 84 100 99 100 100 100 100 100 100 100 100 90 70 67 86 72
100 100 94 92 91 91 86 98 99 100 100 100 100 100 100 100 98 97 88 98 100 100 100 100 100 95 82 96 86 86 100 98 94 100 100 100 100 93 83 74 91 80 70
100 100 100 100 100 99 87 72 77 91 100 100 100 98 100 100 100 100 100 100 100 100 100 99 96 94 100 79 92 93 92 85 70 85 100 100 83 98 85 93 88 60 77
100 100 100 100 100 100 100 100 100 100 91 83 80 81 92 100 100 100 100 100 100 100 100 96 88 87 87 77 89 100 95 88 95 100 100 100 96 91 100 100 60 95 96
100 100 100 100 100 100 100 100 100 100 100 100 100 100 100 100 100 100 100 100 100 100 100 100 98 97 95 90 84 86 84 94 100 100 100 99 100 68 86 56 93 88 88
100 100 100 100 100 100 100 100 100 100 100 100 100 100 100 100 100 100 100 100 100 100 100 100 100 100 97 88 85 88 100 100 100 86 100 100 92 72 78 100 100 79 50
100 100 100 100 100 100 100 100 100 100 100 100 100 100 100 100 100 100 100 100 100 100 100 100 99 96 89 92 84 100 100 100 100 100 100 100 98 100 100 100 66 58 66
93 99 100 100 100 100 100 100 100 100 100 100 100 100 100 100 100 100 100 100 100 100 100 100 100 100 95 92 98 100 100 100 100 100 100 100 100 100 94 57 47 81 84
57 57 76 88 95 100 100 100 100 100 98 99 100 100 100 100 100 100 100 100 100 100 100 100 100 100 99 96 100 100 100 100 100 100 100 100 99 78 87 92 100 100 96
19 26 38 53 54 62 93 100 100 98 96 100 99 96 100 100 100 100 100 100 100 100 100 100 100 100 100 100 100 100 100 100 100 100 100 100 100 100 95 100 100 96 100
13 14 16 21 31 46 51 53 77 100 100 94 88 85 88 96 100 100 100 100 100 100 100 100 100 100 100 100 100 100 100 100 99 79 100 100 100 100 96 100 100 100 97
11 13 13 14 15 16 15 15 16 17 24 39 48 54 63 75 86 97 96 98 100 100 100 100 100 100 100 100 100 100 100 100 100 86 100 100 100 100 100 100 99 85 97
11 11 12 12 12 14 15 14 13 13 13 16 18 25 32 31 27 26 27 35 53 83 100 100 100 100 100 100 100 96 100 100 99 100 100 100 100 100 100 100 100 82 51
8 10 10 10 10 11 12 12 12 12 11 11 13 15 16 18 20 19 19 20 22 26 37 46 63 57 100 100 100 100 100 100 100 100 100 100 100 100 100 97 76 65 67
5 5 6 8 9 9 9 9 10 10 9 10 12 13 12 14 17 19 21 21 21 20 21 22 23 30 47 100 100 100 100 100 100 100 100 89 77 89 67 58 70 72 73
5 5 5 5 5 5 7 9 9 9 9 9 10 10 11 12 12 13 15 16 17 22 24 24 25 28 61 99 100 100 100 100 100 99 86 69 53 66 87 86 80 56 55
5 5 4 4 4 4 4 4 4 5 6 8 8 9 10 10 11 12 12 14 15 17 22 23 26 30 34 88 100 100 100 100 90 67 60 60 66 69 78 68 56 58 59
5 5 5 5 4 4 4 4 4 4 5 5 5 6 8 9 11 12 13 13 15 16 21 24 28 34 35 72 98 100 100 62 71 75 85 88 92 73 56 66 58 56 48
5 5 4 4 4 4 4 4 4 4 5 5 4 5 5 5 7 11 14 15 19 20 24 28 36 46 54 66 74 72 76 73 79 62 59 58 61 62 70 54 45 50 39
5 5 4 4 4 4 5 4 4 4 4 4 4 4 5 5 5 6 11 17 23 30 29 37 58 95 76 53 65 91 94 91 86 63 58 77 71 63 54 48 48 44 46
6 6 5 4 4 4 4 4 4 4 4 4 4 5 5 6 6 6 8 16 31 27 40 54 75 98 75 73 85 93 85 70 70 81 81 84 73 64 52 40 47 47 44
6 5 5 4 4 4 4 4 4 4 4 4 5 5 5 6 7 7 7 13 28 43 61 67 45 63 75 76 69 66 74 78 79 85 79 76 65 54 52 60 52 54 56
6 6 5 5 5 4 4 4 4 4 4 4 4 5 6 7 8 8 10 17 23 41 56 56 60 51 59 67 77 93 99 96 85 82 69 68 72 63 73 62 66 50 35
9 8 6 6 6 6 5 5 5 5 5 5 5 6 8 9 10 9 10 12 20 43 55 57 63 46 62 80 87 88 85 76 74 83 88 88 75 81 72 65 44 39 41

GFSGL_250_rhum_246.txt.gz
RH
100 100 96 94 66 60 85 100 100 100 100 94 100 100 100 100 100 100 100 100 92 77 74 66 62 69 76 79 62 48 54 58 70 100 95 99 100 100 100 100 100 100 100
86 100 100 100 100 100 100 100 100 100 100 100 100 100 96 100 100 100 98 78 61 69 73 95 100 100 97 99 69 58 72 89 100 98 100 99 100 98 100 100 100 100 89
56 75 92 100 100 100 100 100 100 100 100 100 93 79 82 92 80 79 81 100 100 100 100 100 100 100 100 89 50 63 92 100 100 100 100 100 100 100 100 100 100 91 98
100 84 57 68 84 100 100 100 100 100 100 100 100 100 98 87 98 100 100 100 100 100 100 100 100 100 90 79 65 67 81 87 91 100 100 100 100 100 100 100 100 98 100
100 100 100 98 69 73 85 98 98 81 93 100 100 100 100 92 77 95 100 90 100 99 100 100 100 92 90 79 84 69 78 81 65 87 96 100 100 100 100 100 93 100 98
100 100 100 100 100 100 92 76 65 59 63 71 90 100 100 100 93 82 98 92 100 86 100 100 100 100 97 100 92 90 66 70 76 74 88 100 100 100 100 88 100 77 98
100 100 100 100 100 100 100 100 100 98 81 70 71 76 84 92 96 92 90 85 83 78 88 99 100 100 100 100 100 99 89 79 71 81 99 100 100 100 89 97 100 100 100
97 100 100 100 100 100 100 100 100 100 100 100 100 96 98 100 100 100 100 100 97 96 99 100 100 100 100 100 100 100 100 99 95 100 100 100 98 100 100 100 98 100 100
100 100 100 100 100 100 100 100 100 100 100 100 100 100 100 100 100 100 100 100 100 100 100 100 100 100 100 100 100 100 100 100 93 100 83 100 100 99 100 100 100 100 100
53 74 96 100 100 100 100 100 100 99 99 100 100 100 100 100 100 100 100 100 100 100 100 100 100 100 100 100 100 100 100 100 100 100 90 100 98 100 100 100 98 100 82
22 36 47 60 72 95 100 100 100 100 100 100 100 99 100 100 100 100 100 100 100 100 100 100 100 100 100 100 100 100 100 100 100 100 99 100 100 98 100 81 94 100 100
11 13 16 24 34 44 54 59 69 91 100 100 100 100 100 100 100 100 100 100 100 100 100 100 100 100 100 100 100 100 100 100 100 100 100 90 100 100 98 100 100 100 92
13 14 13 12 12 14 18 26 34 43 51 49 54 70 85 100 100 98 90 85 89 98 100 100 100 100 100 100 100 100 100 100 100 100 100 100 100 100 100 100 100 100 99
13 13 13 12 12 13 13 12 11 12 15 28 40 45 49 57 66 71 67 78 88 90 93 99 99 100 100 100 100 100 100 100 100 100 100 100 82 99 100 78 100 100 100
9 10 11 11 11 11 11 11 11 12 11 11 12 15 15 19 22 24 33 42 52 59 57 59 69 79 81 68 72 94 100 100 100 100 100 100 100 100 100 100 100 100 100
9 10 10 10 10 9 9 9 9 9 9 9 10 11 12 13 14 14 15 24 36 42 42 45 47 34 30 48 62 60 79 82 88 99 100 100 100 100 100 100 100 100 100
5 6 6 7 8 8 10 9 8 8 8 9 9 9 9 10 10 10 11 12 14 17 21 21 20 19 20 24 30 84 100 100 100 84 100 100 100 100 100 100 100 100 100
4 4 4 5 5 5 5 5 6 6 7 8 8 8 9 9 9 9 10 10 11 12 15 18 19 20 21 23 25 35 91 66 51 100 100 100 100 100 100 100 100 100 100
4 4 4 4 5 5 5 4 4 4 5 5 4 5 6 7 8 9 10 10 12 12 14 15 18 21 24 26 27 29 29 32 39 84 87 67 50 46 82 98 100 91 81
5 5 5 5 4 4 4 4 4 4 4 4 5 5 5 5 5 7 8 10 11 12 13 14 16 18 22 26 29 30 30 33 42 47 53 75 74 78 68 62 64 67 75
6 6 6 6 6 5 4 4 4 4 4 4 4 4 4 4 4 5 5 6 9 13 15 15 18 18 19 23 24 26 32 38 41 48 60 100 92 82 59 53 57 67 67
9 8 8 8 7 6 5 5 4 4 3 4 4 5 4 4 5 5 5 5 6 7 11 17 25 21 22 27 31 28 34 43 61 78 94 100 83 56 51 46 55 55 59
9 8 8 6 6 5 4 4 4 4 4 4 4 5 5 4 5 5 5 5 6 6 7 12 23 23 32 32 36 44 50 78 85 100 82 85 58 52 47 52 49 69 90
9 8 7 6 5 5 4 4 4 4 4 4 4 5 5 5 5 5 5 5 6 7 8 10 20 25 30 34 49 58 94 100 77 100 87 79 63 50 56 76 93 83 66
9 7 7 6 6 5 4 4 4 4 4 4 4 4 4 5 5 5 6 6 7 8 9 12 20 28 45 100 100 100 100 100 95 100 100 67 75 100 98 88 91 84 73
13 10 7 6 5 6 5 5 5 5 5 4 4 4 4 5 5 5 6 7 8 9 10 13 20 32 65 75 79 88 99 92 99 100 88 92 90 96 92 89 90 81 61